<?xml version="1.0" encoding="UTF-8" standalone="no" ?>
<gpx xmlns="http://www.topografix.com/GPX/1/1" xmlns:xsi="http://www.w3.org/2001/XMLSchema-instance" xsi:schemaLocation="http://www.topografix.com/GPX/1/1 http://www.topografix.com/GPX/1/1/gpx.xsd" version="1.1" creator="VisuGPX - https://www.visugpx.com">
  <metadata>
    <name>GRPMelusine_J5_J9</name>
    <desc><![CDATA[gnerando idor: 12434239_12434246_12434251_12431499_12431542]]></desc>
  </metadata>
  <trk>
    <name><![CDATA[GRPMelusineJ6_VouvantStLaurentS_21km-12434246]]></name>
    <extensions>
      <line xmlns="http://www.topografix.com/GPX/gpx_style/0/2">
        <color>0000FF</color>
        <width>4</width>
      </line>
    </extensions>
    <trkseg>
      <trkpt lat="46.56286" lon="-0.76689">
        <ele>79</ele>
        <time>2023-10-30T09:49:05Z</time>
      </trkpt>
      <trkpt lat="46.5615" lon="-0.77061">
        <ele>72</ele>
        <time>2023-10-30T09:55:32Z</time>
      </trkpt>
      <trkpt lat="46.56048" lon="-0.77187">
        <ele>67</ele>
        <time>2023-10-30T09:58:30Z</time>
      </trkpt>
      <trkpt lat="46.56017" lon="-0.77172">
        <ele>66</ele>
        <time>2023-10-30T09:59:14Z</time>
      </trkpt>
      <trkpt lat="46.55955" lon="-0.77174">
        <ele>67</ele>
        <time>2023-10-30T10:00:37Z</time>
      </trkpt>
      <trkpt lat="46.55843" lon="-0.77104">
        <ele>69</ele>
        <time>2023-10-30T10:03:19Z</time>
      </trkpt>
      <trkpt lat="46.55775" lon="-0.77089">
        <ele>68</ele>
        <time>2023-10-30T10:04:51Z</time>
      </trkpt>
      <trkpt lat="46.55619" lon="-0.77007">
        <ele>64</ele>
        <time>2023-10-30T10:08:32Z</time>
      </trkpt>
      <trkpt lat="46.55566" lon="-0.77009">
        <ele>65</ele>
        <time>2023-10-30T10:09:43Z</time>
      </trkpt>
      <trkpt lat="46.55533" lon="-0.77091">
        <ele>65</ele>
        <time>2023-10-30T10:11:10Z</time>
      </trkpt>
      <trkpt lat="46.5538" lon="-0.7723">
        <ele>74</ele>
        <time>2023-10-30T10:15:11Z</time>
      </trkpt>
      <trkpt lat="46.55303" lon="-0.77224">
        <ele>76</ele>
        <time>2023-10-30T10:16:54Z</time>
      </trkpt>
      <trkpt lat="46.55257" lon="-0.77258">
        <ele>74</ele>
        <time>2023-10-30T10:18:03Z</time>
      </trkpt>
      <trkpt lat="46.55204" lon="-0.7732">
        <ele>73</ele>
        <time>2023-10-30T10:19:34Z</time>
      </trkpt>
      <trkpt lat="46.55161" lon="-0.77355">
        <ele>71</ele>
        <time>2023-10-30T10:20:39Z</time>
      </trkpt>
      <trkpt lat="46.5511" lon="-0.77417">
        <ele>72</ele>
        <time>2023-10-30T10:22:08Z</time>
      </trkpt>
      <trkpt lat="46.5458" lon="-0.77237">
        <ele>88</ele>
        <time>2023-10-30T10:34:14Z</time>
      </trkpt>
      <trkpt lat="46.54629" lon="-0.77483">
        <ele>88</ele>
        <time>2023-10-30T10:38:09Z</time>
      </trkpt>
      <trkpt lat="46.54648" lon="-0.77548">
        <ele>89</ele>
        <time>2023-10-30T10:39:14Z</time>
      </trkpt>
      <trkpt lat="46.5462" lon="-0.77752">
        <ele>84</ele>
        <time>2023-10-30T10:42:25Z</time>
      </trkpt>
      <trkpt lat="46.54558" lon="-0.77895">
        <ele>79</ele>
        <time>2023-10-30T10:45:00Z</time>
      </trkpt>
      <trkpt lat="46.54555" lon="-0.77979">
        <ele>77</ele>
        <time>2023-10-30T10:46:17Z</time>
      </trkpt>
      <trkpt lat="46.54606" lon="-0.78151">
        <ele>54</ele>
        <time>2023-10-30T10:49:09Z</time>
      </trkpt>
      <trkpt lat="46.54505" lon="-0.78217">
        <ele>54</ele>
        <time>2023-10-30T10:51:37Z</time>
      </trkpt>
      <trkpt lat="46.54466" lon="-0.78217">
        <ele>54</ele>
        <time>2023-10-30T10:52:29Z</time>
      </trkpt>
      <trkpt lat="46.54428" lon="-0.78172">
        <ele>53</ele>
        <time>2023-10-30T10:53:35Z</time>
      </trkpt>
      <trkpt lat="46.54416" lon="-0.78114">
        <ele>54</ele>
        <time>2023-10-30T10:54:30Z</time>
      </trkpt>
      <trkpt lat="46.54325" lon="-0.78112">
        <ele>48</ele>
        <time>2023-10-30T10:56:32Z</time>
      </trkpt>
      <trkpt lat="46.54288" lon="-0.78095">
        <ele>64</ele>
        <time>2023-10-30T10:57:23Z</time>
      </trkpt>
      <trkpt lat="46.54276" lon="-0.78114">
        <ele>69</ele>
        <time>2023-10-30T10:57:47Z</time>
      </trkpt>
      <trkpt lat="46.54291" lon="-0.78187">
        <ele>64</ele>
        <time>2023-10-30T10:58:57Z</time>
      </trkpt>
      <trkpt lat="46.54277" lon="-0.78245">
        <ele>72</ele>
        <time>2023-10-30T10:59:53Z</time>
      </trkpt>
      <trkpt lat="46.54326" lon="-0.78312">
        <ele>68</ele>
        <time>2023-10-30T11:01:23Z</time>
      </trkpt>
      <trkpt lat="46.54369" lon="-0.78342">
        <ele>69</ele>
        <time>2023-10-30T11:02:27Z</time>
      </trkpt>
      <trkpt lat="46.54491" lon="-0.78393">
        <ele>71</ele>
        <time>2023-10-30T11:05:16Z</time>
      </trkpt>
      <trkpt lat="46.54552" lon="-0.78387">
        <ele>61</ele>
        <time>2023-10-30T11:06:38Z</time>
      </trkpt>
      <trkpt lat="46.5457" lon="-0.78397">
        <ele>60</ele>
        <time>2023-10-30T11:07:04Z</time>
      </trkpt>
      <trkpt lat="46.54568" lon="-0.78445">
        <ele>65</ele>
        <time>2023-10-30T11:07:48Z</time>
      </trkpt>
      <trkpt lat="46.54496" lon="-0.78608">
        <ele>81</ele>
        <time>2023-10-30T11:10:45Z</time>
      </trkpt>
      <trkpt lat="46.54459" lon="-0.78648">
        <ele>85</ele>
        <time>2023-10-30T11:11:47Z</time>
      </trkpt>
      <trkpt lat="46.54412" lon="-0.78629">
        <ele>95</ele>
        <time>2023-10-30T11:12:52Z</time>
      </trkpt>
      <trkpt lat="46.5432" lon="-0.7864">
        <ele>101</ele>
        <time>2023-10-30T11:14:55Z</time>
      </trkpt>
      <trkpt lat="46.54206" lon="-0.78715">
        <ele>104</ele>
        <time>2023-10-30T11:17:42Z</time>
      </trkpt>
      <trkpt lat="46.5408" lon="-0.78857">
        <ele>106</ele>
        <time>2023-10-30T11:21:15Z</time>
      </trkpt>
      <trkpt lat="46.53889" lon="-0.79123">
        <ele>113</ele>
        <time>2023-10-30T11:27:08Z</time>
      </trkpt>
      <trkpt lat="46.54066" lon="-0.79314">
        <ele>121</ele>
        <time>2023-10-30T11:32:02Z</time>
      </trkpt>
      <trkpt lat="46.54105" lon="-0.79378">
        <ele>123</ele>
        <time>2023-10-30T11:33:21Z</time>
      </trkpt>
      <trkpt lat="46.54348" lon="-0.79687">
        <ele>119</ele>
        <time>2023-10-30T11:40:31Z</time>
      </trkpt>
      <trkpt lat="46.54378" lon="-0.79721">
        <ele>119</ele>
        <time>2023-10-30T11:41:22Z</time>
      </trkpt>
      <trkpt lat="46.54496" lon="-0.79942">
        <ele>119</ele>
        <time>2023-10-30T11:45:39Z</time>
      </trkpt>
      <trkpt lat="46.54509" lon="-0.7999">
        <ele>120</ele>
        <time>2023-10-30T11:46:26Z</time>
      </trkpt>
      <trkpt lat="46.54583" lon="-0.80105">
        <ele>117</ele>
        <time>2023-10-30T11:48:51Z</time>
      </trkpt>
      <trkpt lat="46.54682" lon="-0.80206">
        <ele>114</ele>
        <time>2023-10-30T11:51:32Z</time>
      </trkpt>
      <trkpt lat="46.54694" lon="-0.80239">
        <ele>116</ele>
        <time>2023-10-30T11:52:07Z</time>
      </trkpt>
      <trkpt lat="46.54713" lon="-0.80307">
        <ele>118</ele>
        <time>2023-10-30T11:53:14Z</time>
      </trkpt>
      <trkpt lat="46.54733" lon="-0.80333">
        <ele>119</ele>
        <time>2023-10-30T11:53:50Z</time>
      </trkpt>
      <trkpt lat="46.54733" lon="-0.80378">
        <ele>118</ele>
        <time>2023-10-30T11:54:31Z</time>
      </trkpt>
      <trkpt lat="46.5477" lon="-0.80526">
        <ele>116</ele>
        <time>2023-10-30T11:56:56Z</time>
      </trkpt>
      <trkpt lat="46.54809" lon="-0.80543">
        <ele>116</ele>
        <time>2023-10-30T11:57:50Z</time>
      </trkpt>
      <trkpt lat="46.54807" lon="-0.80582">
        <ele>116</ele>
        <time>2023-10-30T11:58:26Z</time>
      </trkpt>
      <trkpt lat="46.54828" lon="-0.80631">
        <ele>116</ele>
        <time>2023-10-30T11:59:19Z</time>
      </trkpt>
      <trkpt lat="46.54952" lon="-0.80848">
        <ele>114</ele>
        <time>2023-10-30T12:03:38Z</time>
      </trkpt>
      <trkpt lat="46.54972" lon="-0.80932">
        <ele>112</ele>
        <time>2023-10-30T12:04:59Z</time>
      </trkpt>
      <trkpt lat="46.54987" lon="-0.81236">
        <ele>117</ele>
        <time>2023-10-30T12:09:39Z</time>
      </trkpt>
      <trkpt lat="46.55003" lon="-0.81236">
        <ele>117</ele>
        <time>2023-10-30T12:10:00Z</time>
      </trkpt>
      <trkpt lat="46.5503" lon="-0.81193">
        <ele>117</ele>
        <time>2023-10-30T12:10:54Z</time>
      </trkpt>
      <trkpt lat="46.55234" lon="-0.81108">
        <ele>106</ele>
        <time>2023-10-30T12:15:37Z</time>
      </trkpt>
      <trkpt lat="46.55294" lon="-0.8102">
        <ele>106</ele>
        <time>2023-10-30T12:17:31Z</time>
      </trkpt>
      <trkpt lat="46.55362" lon="-0.80955">
        <ele>107</ele>
        <time>2023-10-30T12:19:19Z</time>
      </trkpt>
      <trkpt lat="46.55418" lon="-0.80927">
        <ele>110</ele>
        <time>2023-10-30T12:20:38Z</time>
      </trkpt>
      <trkpt lat="46.55462" lon="-0.80934">
        <ele>107</ele>
        <time>2023-10-30T12:21:37Z</time>
      </trkpt>
      <trkpt lat="46.55592" lon="-0.80829">
        <ele>96</ele>
        <time>2023-10-30T12:24:56Z</time>
      </trkpt>
      <trkpt lat="46.55632" lon="-0.80811">
        <ele>95</ele>
        <time>2023-10-30T12:25:52Z</time>
      </trkpt>
      <trkpt lat="46.55688" lon="-0.80884">
        <ele>98</ele>
        <time>2023-10-30T12:27:32Z</time>
      </trkpt>
      <trkpt lat="46.55737" lon="-0.80781">
        <ele>92</ele>
        <time>2023-10-30T12:29:27Z</time>
      </trkpt>
      <trkpt lat="46.55862" lon="-0.80629">
        <ele>84</ele>
        <time>2023-10-30T12:33:04Z</time>
      </trkpt>
      <trkpt lat="46.55883" lon="-0.80747">
        <ele>84</ele>
        <time>2023-10-30T12:34:56Z</time>
      </trkpt>
      <trkpt lat="46.55932" lon="-0.80867">
        <ele>86</ele>
        <time>2023-10-30T12:37:04Z</time>
      </trkpt>
      <trkpt lat="46.55923" lon="-0.80981">
        <ele>87</ele>
        <time>2023-10-30T12:38:50Z</time>
      </trkpt>
      <trkpt lat="46.55935" lon="-0.81084">
        <ele>88</ele>
        <time>2023-10-30T12:40:25Z</time>
      </trkpt>
      <trkpt lat="46.56026" lon="-0.81251">
        <ele>94</ele>
        <time>2023-10-30T12:43:41Z</time>
      </trkpt>
      <trkpt lat="46.5611" lon="-0.81429">
        <ele>95</ele>
        <time>2023-10-30T12:46:59Z</time>
      </trkpt>
      <trkpt lat="46.56147" lon="-0.81558">
        <ele>97</ele>
        <time>2023-10-30T12:49:07Z</time>
      </trkpt>
      <trkpt lat="46.5637" lon="-0.81711">
        <ele>95</ele>
        <time>2023-10-30T12:54:36Z</time>
      </trkpt>
      <trkpt lat="46.56398" lon="-0.81711">
        <ele>94</ele>
        <time>2023-10-30T12:55:14Z</time>
      </trkpt>
      <trkpt lat="46.56446" lon="-0.8168">
        <ele>94</ele>
        <time>2023-10-30T12:56:24Z</time>
      </trkpt>
      <trkpt lat="46.56473" lon="-0.8168">
        <ele>95</ele>
        <time>2023-10-30T12:57:00Z</time>
      </trkpt>
      <trkpt lat="46.56584" lon="-0.81783">
        <ele>103</ele>
        <time>2023-10-30T12:59:56Z</time>
      </trkpt>
      <trkpt lat="46.56706" lon="-0.81876">
        <ele>107</ele>
        <time>2023-10-30T13:02:59Z</time>
      </trkpt>
      <trkpt lat="46.56803" lon="-0.8197">
        <ele>99</ele>
        <time>2023-10-30T13:05:35Z</time>
      </trkpt>
      <trkpt lat="46.56879" lon="-0.82022">
        <ele>94</ele>
        <time>2023-10-30T13:07:27Z</time>
      </trkpt>
      <trkpt lat="46.56911" lon="-0.82077">
        <ele>94</ele>
        <time>2023-10-30T13:08:33Z</time>
      </trkpt>
      <trkpt lat="46.56945" lon="-0.82107">
        <ele>95</ele>
        <time>2023-10-30T13:09:26Z</time>
      </trkpt>
      <trkpt lat="46.56991" lon="-0.82107">
        <ele>96</ele>
        <time>2023-10-30T13:10:27Z</time>
      </trkpt>
      <trkpt lat="46.57042" lon="-0.82148">
        <ele>99</ele>
        <time>2023-10-30T13:11:45Z</time>
      </trkpt>
      <trkpt lat="46.57038" lon="-0.82296">
        <ele>108</ele>
        <time>2023-10-30T13:14:01Z</time>
      </trkpt>
      <trkpt lat="46.57057" lon="-0.82554">
        <ele>115</ele>
        <time>2023-10-30T13:17:59Z</time>
      </trkpt>
      <trkpt lat="46.57099" lon="-0.82743">
        <ele>120</ele>
        <time>2023-10-30T13:21:01Z</time>
      </trkpt>
      <trkpt lat="46.56954" lon="-0.82747">
        <ele>125</ele>
        <time>2023-10-30T13:24:15Z</time>
      </trkpt>
      <trkpt lat="46.56929" lon="-0.82743">
        <ele>126</ele>
        <time>2023-10-30T13:24:48Z</time>
      </trkpt>
      <trkpt lat="46.56885" lon="-0.82755">
        <ele>126</ele>
        <time>2023-10-30T13:25:48Z</time>
      </trkpt>
      <trkpt lat="46.56663" lon="-0.82771">
        <ele>125</ele>
        <time>2023-10-30T13:30:45Z</time>
      </trkpt>
      <trkpt lat="46.5665" lon="-0.82753">
        <ele>125</ele>
        <time>2023-10-30T13:31:09Z</time>
      </trkpt>
      <trkpt lat="46.56548" lon="-0.82792">
        <ele>124</ele>
        <time>2023-10-30T13:33:30Z</time>
      </trkpt>
      <trkpt lat="46.56461" lon="-0.82779">
        <ele>124</ele>
        <time>2023-10-30T13:35:26Z</time>
      </trkpt>
      <trkpt lat="46.56354" lon="-0.8273">
        <ele>125</ele>
        <time>2023-10-30T13:37:56Z</time>
      </trkpt>
      <trkpt lat="46.56281" lon="-0.82854">
        <ele>125</ele>
        <time>2023-10-30T13:40:26Z</time>
      </trkpt>
      <trkpt lat="46.56176" lon="-0.82987">
        <ele>128</ele>
        <time>2023-10-30T13:43:32Z</time>
      </trkpt>
      <trkpt lat="46.56076" lon="-0.83161">
        <ele>119</ele>
        <time>2023-10-30T13:47:00Z</time>
      </trkpt>
      <trkpt lat="46.55965" lon="-0.8329">
        <ele>114</ele>
        <time>2023-10-30T13:50:09Z</time>
      </trkpt>
      <trkpt lat="46.55909" lon="-0.83298">
        <ele>112</ele>
        <time>2023-10-30T13:51:24Z</time>
      </trkpt>
      <trkpt lat="46.55883" lon="-0.83311">
        <ele>110</ele>
        <time>2023-10-30T13:52:01Z</time>
      </trkpt>
      <trkpt lat="46.55781" lon="-0.83436">
        <ele>115</ele>
        <time>2023-10-30T13:54:59Z</time>
      </trkpt>
      <trkpt lat="46.55759" lon="-0.83459">
        <ele>116</ele>
        <time>2023-10-30T13:55:35Z</time>
      </trkpt>
      <trkpt lat="46.55726" lon="-0.83582">
        <ele>113</ele>
        <time>2023-10-30T13:57:36Z</time>
      </trkpt>
      <trkpt lat="46.55681" lon="-0.83637">
        <ele>113</ele>
        <time>2023-10-30T13:58:55Z</time>
      </trkpt>
      <trkpt lat="46.55672" lon="-0.83766">
        <ele>108</ele>
        <time>2023-10-30T14:00:54Z</time>
      </trkpt>
      <trkpt lat="46.55611" lon="-0.838">
        <ele>109</ele>
        <time>2023-10-30T14:02:21Z</time>
      </trkpt>
      <trkpt lat="46.5557" lon="-0.83841">
        <ele>107</ele>
        <time>2023-10-30T14:03:27Z</time>
      </trkpt>
      <trkpt lat="46.55545" lon="-0.8391">
        <ele>104</ele>
        <time>2023-10-30T14:04:39Z</time>
      </trkpt>
      <trkpt lat="46.55585" lon="-0.84097">
        <ele>100</ele>
        <time>2023-10-30T14:07:39Z</time>
      </trkpt>
      <trkpt lat="46.55749" lon="-0.84354">
        <ele>95</ele>
        <time>2023-10-30T14:13:00Z</time>
      </trkpt>
      <trkpt lat="46.5588" lon="-0.84412">
        <ele>93</ele>
        <time>2023-10-30T14:16:03Z</time>
      </trkpt>
      <trkpt lat="46.55893" lon="-0.84511">
        <ele>93</ele>
        <time>2023-10-30T14:17:36Z</time>
      </trkpt>
      <trkpt lat="46.5594" lon="-0.84607">
        <ele>95</ele>
        <time>2023-10-30T14:19:24Z</time>
      </trkpt>
      <trkpt lat="46.55992" lon="-0.84665">
        <ele>97</ele>
        <time>2023-10-30T14:20:51Z</time>
      </trkpt>
      <trkpt lat="46.5605" lon="-0.84762">
        <ele>96</ele>
        <time>2023-10-30T14:22:49Z</time>
      </trkpt>
      <trkpt lat="46.56116" lon="-0.84835">
        <ele>93</ele>
        <time>2023-10-30T14:24:40Z</time>
      </trkpt>
      <trkpt lat="46.5614" lon="-0.84938">
        <ele>91</ele>
        <time>2023-10-30T14:26:20Z</time>
      </trkpt>
      <trkpt lat="46.56138" lon="-0.85077">
        <ele>91</ele>
        <time>2023-10-30T14:28:27Z</time>
      </trkpt>
      <trkpt lat="46.56191" lon="-0.85189">
        <ele>94</ele>
        <time>2023-10-30T14:30:32Z</time>
      </trkpt>
      <trkpt lat="46.5623" lon="-0.85315">
        <ele>98</ele>
        <time>2023-10-30T14:32:39Z</time>
      </trkpt>
      <trkpt lat="46.56269" lon="-0.85416">
        <ele>101</ele>
        <time>2023-10-30T14:34:25Z</time>
      </trkpt>
      <trkpt lat="46.56342" lon="-0.85521">
        <ele>103</ele>
        <time>2023-10-30T14:36:42Z</time>
      </trkpt>
      <trkpt lat="46.56408" lon="-0.85566">
        <ele>104</ele>
        <time>2023-10-30T14:38:19Z</time>
      </trkpt>
      <trkpt lat="46.56472" lon="-0.85665">
        <ele>107</ele>
        <time>2023-10-30T14:40:24Z</time>
      </trkpt>
      <trkpt lat="46.56488" lon="-0.85704">
        <ele>108</ele>
        <time>2023-10-30T14:41:06Z</time>
      </trkpt>
      <trkpt lat="46.56352" lon="-0.85725">
        <ele>106</ele>
        <time>2023-10-30T14:44:08Z</time>
      </trkpt>
      <trkpt lat="46.56187" lon="-0.85948">
        <ele>107</ele>
        <time>2023-10-30T14:49:09Z</time>
      </trkpt>
      <trkpt lat="46.56101" lon="-0.86041">
        <ele>104</ele>
        <time>2023-10-30T14:51:32Z</time>
      </trkpt>
      <trkpt lat="46.56067" lon="-0.86092">
        <ele>104</ele>
        <time>2023-10-30T14:52:37Z</time>
      </trkpt>
      <trkpt lat="46.5589" lon="-0.86135">
        <ele>102</ele>
        <time>2023-10-30T14:56:36Z</time>
      </trkpt>
      <trkpt lat="46.55766" lon="-0.86107">
        <ele>100</ele>
        <time>2023-10-30T14:59:24Z</time>
      </trkpt>
      <trkpt lat="46.55701" lon="-0.86165">
        <ele>101</ele>
        <time>2023-10-30T15:01:05Z</time>
      </trkpt>
      <trkpt lat="46.55695" lon="-0.86249">
        <ele>100</ele>
        <time>2023-10-30T15:02:23Z</time>
      </trkpt>
      <trkpt lat="46.55709" lon="-0.86307">
        <ele>100</ele>
        <time>2023-10-30T15:03:19Z</time>
      </trkpt>
      <trkpt lat="46.55701" lon="-0.86365">
        <ele>98</ele>
        <time>2023-10-30T15:04:14Z</time>
      </trkpt>
      <trkpt lat="46.55656" lon="-0.86341">
        <ele>98</ele>
        <time>2023-10-30T15:05:18Z</time>
      </trkpt>
      <trkpt lat="46.55601" lon="-0.86317">
        <ele>99</ele>
        <time>2023-10-30T15:06:34Z</time>
      </trkpt>
      <trkpt lat="46.5548" lon="-0.8639">
        <ele>99</ele>
        <time>2023-10-30T15:09:29Z</time>
      </trkpt>
      <trkpt lat="46.55389" lon="-0.86388">
        <ele>95</ele>
        <time>2023-10-30T15:11:31Z</time>
      </trkpt>
      <trkpt lat="46.55334" lon="-0.86474">
        <ele>92</ele>
        <time>2023-10-30T15:13:18Z</time>
      </trkpt>
      <trkpt lat="46.55259" lon="-0.86427">
        <ele>88</ele>
        <time>2023-10-30T15:15:07Z</time>
      </trkpt>
      <trkpt lat="46.55232" lon="-0.86425">
        <ele>86</ele>
        <time>2023-10-30T15:15:43Z</time>
      </trkpt>
      <trkpt lat="46.55234" lon="-0.86474">
        <ele>85</ele>
        <time>2023-10-30T15:16:28Z</time>
      </trkpt>
      <trkpt lat="46.55248" lon="-0.86599">
        <ele>86</ele>
        <time>2023-10-30T15:18:25Z</time>
      </trkpt>
      <trkpt lat="46.55284" lon="-0.8659">
        <ele>88</ele>
        <time>2023-10-30T15:19:13Z</time>
      </trkpt>
      <trkpt lat="46.55328" lon="-0.86633">
        <ele>92</ele>
        <time>2023-10-30T15:20:24Z</time>
      </trkpt>
      <trkpt lat="46.55347" lon="-0.86687">
        <ele>92</ele>
        <time>2023-10-30T15:21:20Z</time>
      </trkpt>
      <trkpt lat="46.55389" lon="-0.86751">
        <ele>89</ele>
        <time>2023-10-30T15:22:41Z</time>
      </trkpt>
      <trkpt lat="46.55451" lon="-0.86762">
        <ele>92</ele>
        <time>2023-10-30T15:24:04Z</time>
      </trkpt>
      <trkpt lat="46.55473" lon="-0.86781">
        <ele>93</ele>
        <time>2023-10-30T15:24:38Z</time>
      </trkpt>
      <trkpt lat="46.55489" lon="-0.86832">
        <ele>93</ele>
        <time>2023-10-30T15:25:30Z</time>
      </trkpt>
      <trkpt lat="46.55486" lon="-0.86882">
        <ele>93</ele>
        <time>2023-10-30T15:26:16Z</time>
      </trkpt>
      <trkpt lat="46.55507" lon="-0.87068">
        <ele>86</ele>
        <time>2023-10-30T15:29:09Z</time>
      </trkpt>
      <trkpt lat="46.55535" lon="-0.87178">
        <ele>83</ele>
        <time>2023-10-30T15:30:57Z</time>
      </trkpt>
      <trkpt lat="46.55656" lon="-0.87358">
        <ele>81</ele>
        <time>2023-10-30T15:34:48Z</time>
      </trkpt>
      <trkpt lat="46.5562" lon="-0.87405">
        <ele>77</ele>
        <time>2023-10-30T15:35:52Z</time>
      </trkpt>
      <trkpt lat="46.55604" lon="-0.87476">
        <ele>74</ele>
        <time>2023-10-30T15:37:01Z</time>
      </trkpt>
      <trkpt lat="46.5558" lon="-0.87519">
        <ele>73</ele>
        <time>2023-10-30T15:37:51Z</time>
      </trkpt>
      <trkpt lat="46.55585" lon="-0.87556">
        <ele>72</ele>
        <time>2023-10-30T15:38:26Z</time>
      </trkpt>
      <trkpt lat="46.55622" lon="-0.87541">
        <ele>73</ele>
        <time>2023-10-30T15:39:17Z</time>
      </trkpt>
      <trkpt lat="46.55645" lon="-0.87682">
        <ele>71</ele>
        <time>2023-10-30T15:41:30Z</time>
      </trkpt>
      <trkpt lat="46.55757" lon="-0.87854">
        <ele>75</ele>
        <time>2023-10-30T15:45:08Z</time>
      </trkpt>
      <trkpt lat="46.55791" lon="-0.87875">
        <ele>78</ele>
        <time>2023-10-30T15:45:57Z</time>
      </trkpt>
      <trkpt lat="46.55791" lon="-0.87955">
        <ele>74</ele>
        <time>2023-10-30T15:47:10Z</time>
      </trkpt>
      <trkpt lat="46.55805" lon="-0.88008">
        <ele>71</ele>
        <time>2023-10-30T15:48:03Z</time>
      </trkpt>
      <trkpt lat="46.55828" lon="-0.88047">
        <ele>68</ele>
        <time>2023-10-30T15:48:50Z</time>
      </trkpt>
      <trkpt lat="46.55873" lon="-0.8809">
        <ele>64</ele>
        <time>2023-10-30T15:50:02Z</time>
      </trkpt>
      <trkpt lat="46.55914" lon="-0.88214">
        <ele>60</ele>
        <time>2023-10-30T15:52:08Z</time>
      </trkpt>
      <trkpt lat="46.55912" lon="-0.88277">
        <ele>58</ele>
        <time>2023-10-30T15:53:06Z</time>
      </trkpt>
      <trkpt lat="46.55918" lon="-0.88328">
        <ele>57</ele>
        <time>2023-10-30T15:53:53Z</time>
      </trkpt>
      <trkpt lat="46.55963" lon="-0.8848">
        <ele>60</ele>
        <time>2023-10-30T15:56:25Z</time>
      </trkpt>
      <trkpt lat="46.56072" lon="-0.88626">
        <ele>58</ele>
        <time>2023-10-30T15:59:43Z</time>
      </trkpt>
      <trkpt lat="46.56113" lon="-0.88809">
        <ele>58</ele>
        <time>2023-10-30T16:02:39Z</time>
      </trkpt>
      <trkpt lat="46.56196" lon="-0.8901">
        <ele>57</ele>
        <time>2023-10-30T16:06:14Z</time>
      </trkpt>
      <trkpt lat="46.56252" lon="-0.89083">
        <ele>54</ele>
        <time>2023-10-30T16:07:55Z</time>
      </trkpt>
      <trkpt lat="46.56309" lon="-0.8924">
        <ele>56</ele>
        <time>2023-10-30T16:10:38Z</time>
      </trkpt>
      <trkpt lat="46.56392" lon="-0.89435">
        <ele>53</ele>
        <time>2023-10-30T16:14:08Z</time>
      </trkpt>
      <trkpt lat="46.56399" lon="-0.89467">
        <ele>52</ele>
        <time>2023-10-30T16:14:39Z</time>
      </trkpt>
      <trkpt lat="46.56414" lon="-0.89474">
        <ele>51</ele>
        <time>2023-10-30T16:15:00Z</time>
      </trkpt>
      <trkpt lat="46.56405" lon="-0.89575">
        <ele>49</ele>
        <time>2023-10-30T16:16:33Z</time>
      </trkpt>
      <trkpt lat="46.5639" lon="-0.8959">
        <ele>49</ele>
        <time>2023-10-30T16:16:58Z</time>
      </trkpt>
      <trkpt lat="46.56382" lon="-0.89646">
        <ele>50</ele>
        <time>2023-10-30T16:17:50Z</time>
      </trkpt>
      <trkpt lat="46.56367" lon="-0.89699">
        <ele>50</ele>
        <time>2023-10-30T16:18:43Z</time>
      </trkpt>
      <trkpt lat="46.56373" lon="-0.89766">
        <ele>50</ele>
        <time>2023-10-30T16:19:45Z</time>
      </trkpt>
      <trkpt lat="46.5637" lon="-0.89944">
        <ele>50</ele>
        <time>2023-10-30T16:22:28Z</time>
      </trkpt>
      <trkpt lat="46.56336" lon="-0.90077">
        <ele>48</ele>
        <time>2023-10-30T16:24:38Z</time>
      </trkpt>
      <trkpt lat="46.56333" lon="-0.90133">
        <ele>49</ele>
        <time>2023-10-30T16:25:30Z</time>
      </trkpt>
      <trkpt lat="46.56264" lon="-0.90259">
        <ele>49</ele>
        <time>2023-10-30T16:27:58Z</time>
      </trkpt>
      <trkpt lat="46.56261" lon="-0.90336">
        <ele>53</ele>
        <time>2023-10-30T16:29:08Z</time>
      </trkpt>
      <trkpt lat="46.56213" lon="-0.90652">
        <ele>55</ele>
        <time>2023-10-30T16:34:05Z</time>
      </trkpt>
      <trkpt lat="46.56216" lon="-0.90776">
        <ele>57</ele>
        <time>2023-10-30T16:35:59Z</time>
      </trkpt>
      <trkpt lat="46.56156" lon="-0.90858">
        <ele>57</ele>
        <time>2023-10-30T16:37:49Z</time>
      </trkpt>
      <trkpt lat="46.561" lon="-0.90916">
        <ele>56</ele>
        <time>2023-10-30T16:39:21Z</time>
      </trkpt>
      <trkpt lat="46.56088" lon="-0.91047">
        <ele>58</ele>
        <time>2023-10-30T16:41:22Z</time>
      </trkpt>
      <trkpt lat="46.56103" lon="-0.91109">
        <ele>60</ele>
        <time>2023-10-30T16:42:22Z</time>
      </trkpt>
      <trkpt lat="46.56126" lon="-0.91317">
        <ele>60</ele>
        <time>2023-10-30T16:45:36Z</time>
      </trkpt>
      <trkpt lat="46.56205" lon="-0.91476">
        <ele>62</ele>
        <time>2023-10-30T16:48:36Z</time>
      </trkpt>
    </trkseg>
  </trk>
</gpx>